Address 0x23270d3c66298d52266fd9e6692528dd0307d400

 
Txn Hash
Block
From
To
Value [Txn Fee]
0xe36e5f2acb703559feea21dbd7e78df69f17c07e8cc4586d17666edc6faca2fb67479552021-04-21 2:59:4265 days 56 mins ago0x23270d3c66298d52266fd9e6692528dd0307d400OUT Binance: BUSD Stablecoin0 BNB0.000105695
0x73b899492ef0c7f8d6332d83329f135355c23971fe80f5b870e07ac8444e74a867473562021-04-21 2:29:4365 days 1 hr ago0x23270d3c66298d52266fd9e6692528dd0307d400OUT CheeseSwap: Router0 BNB0.000761605
0xff8ccfc62c496dbd777d452119755ce6f8b80fbf684fbf9828140e6f60aa0db867165492021-04-20 0:38:2566 days 3 hrs ago0x23270d3c66298d52266fd9e6692528dd0307d400OUT CheeseSwap: Router0 BNB0.00061156
0x5ae03990dad6914843801ccf9c2730e2bab77b3f8b7206922d51b7da78567fb467165412021-04-20 0:38:0166 days 3 hrs ago0x23270d3c66298d52266fd9e6692528dd0307d400OUT CheeseSwap: Router0 BNB0.000836515
0xed0c964b1fa4ed4e172d4cded8fb6f8827eb9229932725fe6a6829a424c0c19967165232021-04-20 0:37:0766 days 3 hrs ago0x23270d3c66298d52266fd9e6692528dd0307d400OUT Keep3rb Network: KP3RB Token0 BNB0.000252195
0x4d3e0eaef958031d66122903c6a04fedc8009318b8251d6f387632fba60b075867164922021-04-20 0:35:3466 days 3 hrs ago0x23270d3c66298d52266fd9e6692528dd0307d400OUT CheeseSwap: Router0 BNB0.000836425
0x45acff0616530cb9b1432635dd190835e3429e79a5d9b9b524557780116f2b4062646582021-04-04 4:15:3381 days 23 hrs ago0x23270d3c66298d52266fd9e6692528dd0307d400OUT Keep3rb Network: CHS/BNB Oracle0 BNB0.00339746
0xcff04e77189c878293c00a941a9ff8510d94b919dfec153e675105bc6a921beb62646452021-04-04 4:14:5481 days 23 hrs ago0x23270d3c66298d52266fd9e6692528dd0307d400OUT Keep3rb Network: KP3RB/CHS Oracle0 BNB0.00343946
0x9a6e4e2cd9560cdc58b1de90f91d2a8f4cf77c448f47ed6fbd798554e63318d962640542021-04-04 3:45:2182 days 10 mins ago0x23270d3c66298d52266fd9e6692528dd0307d400OUT Keep3rb Network: CHS/BNB Oracle0 BNB0.00339746
0xa12b338a95b27fb100199ada5256d79ef09cfc8c445af2def4f633fd299fa4ce62640412021-04-04 3:44:4282 days 11 mins ago0x23270d3c66298d52266fd9e6692528dd0307d400OUT Keep3rb Network: KP3RB/CHS Oracle0 BNB0.00343946
0x7c19ef354fcd1debd3a977049dc9d28d4fc335c68c36d3ee1e95fa695a7e4b0062634472021-04-04 3:14:3982 days 41 mins ago0x23270d3c66298d52266fd9e6692528dd0307d400OUT Keep3rb Network: CHS/BNB Oracle0 BNB0.00339746
0xca76e0f8d981019cecd0c51d53c16b217bb95e3e466199ccbb1f5ea2e8c182ad62634412021-04-04 3:14:2182 days 41 mins ago0x23270d3c66298d52266fd9e6692528dd0307d400OUT Keep3rb Network: KP3RB/CHS Oracle0 BNB0.00343946
0x32d345afc57931f9e0eebe02f6e312f7a508eb56344bc6365bfda67fc5efbb3c62624822021-04-04 2:26:2482 days 1 hr ago0x23270d3c66298d52266fd9e6692528dd0307d400OUT Keep3rb Network: CHS/BNB Oracle0 BNB0.00339746
0x63bde5b05aedabb49e89de9f76df884e61c001ef95993e9a430751c355a34c2262624792021-04-04 2:26:1582 days 1 hr ago0x23270d3c66298d52266fd9e6692528dd0307d400OUT Keep3rb Network: KP3RB/CHS Oracle0 BNB0.00343946
0xe11a5d4d5b9e6bf571c2dc70ff32104899968c3008eeeca99f737d2b99d2165c62618762021-04-04 1:56:0682 days 2 hrs ago0x23270d3c66298d52266fd9e6692528dd0307d400OUT Keep3rb Network: CHS/BNB Oracle0 BNB0.00339746
0xcf707571a5490c6af0d07bf7c6e1cd7e11f6d8e0566a1d14f1a04e80aeab782362618752021-04-04 1:56:0382 days 2 hrs ago0x23270d3c66298d52266fd9e6692528dd0307d400OUT Keep3rb Network: KP3RB/CHS Oracle0 BNB0.00343946
0x405f7094d3ba333e92eaef8561877050801777cd8dc130527f3b436e93842b6861739012021-04-01 0:01:3985 days 3 hrs ago0x23270d3c66298d52266fd9e6692528dd0307d400OUT Keep3rb Network: KP3RB Token0 BNB0.00064746
0x22713f89b50bb9640c613d1e11137cf97969e48119dac94fc76e795928c0ef0461594992021-03-31 11:52:4185 days 16 hrs ago0x23270d3c66298d52266fd9e6692528dd0307d400OUT Keep3rb Network: KP3RB Token0 BNB0.00050439
0x0f804b38aed78d502e0cb214dcb74357b7fb2abafcf4f8476a11af708b9af88961511192021-03-31 4:52:2685 days 23 hrs ago0x23270d3c66298d52266fd9e6692528dd0307d400OUT Keep3rb Network: CheeseSwap Sliding Oracle0 BNB0.00037322
0xc7b59e2c3521980ea2dfee2e9ec35dfd7c9f5e0453dfe369c73898f0e2a1bacf61333972021-03-30 14:03:0386 days 13 hrs ago0x23270d3c66298d52266fd9e6692528dd0307d400OUT Keep3rb Network: CheeseSwap Sliding Oracle0 BNB0.00343946
0x7247a1bda227986b1274dcf3e46d2920baeb2b5b2d114284975dd8e47c269eb861330932021-03-30 13:47:5186 days 14 hrs ago0x23270d3c66298d52266fd9e6692528dd0307d400OUT Keep3rb Network: CheeseSwap Sliding Oracle0 BNB0.00343946
0x98a3f32df444200b476fe9883f7784cdb20bb7ef2fc71cd10573e9d2ff6fdf9461328592021-03-30 13:36:0986 days 14 hrs ago0x23270d3c66298d52266fd9e6692528dd0307d400OUT Keep3rb Network: CHS/BNB Oracle0 BNB0.00339746
0xf0ff41e2cdeb44cc1e7f74015b342e45dfc0b9ca367d9381934f3a7702f04f4e61328372021-03-30 13:35:0386 days 14 hrs ago0x23270d3c66298d52266fd9e6692528dd0307d400OUT Keep3rb Network: KP3RB/CHS Oracle0 BNB0.00339746
0xd2e04df39bcbf82bbb22771eda061286f83fdc474c5a783db3a214b2c28b28b061327842021-03-30 13:32:2486 days 14 hrs ago0x23270d3c66298d52266fd9e6692528dd0307d400OUT Keep3rb Network: CheeseSwap Sliding Oracle0 BNB0.00343946
0x26c7bf6e943224531cf64bfe8603ecfa1aaf4bf429d7decc27ed366d16967c4d61323152021-03-30 13:08:5786 days 14 hrs ago0x23270d3c66298d52266fd9e6692528dd0307d400OUT Keep3rb Network: CheeseSwap Sliding Oracle0 BNB0.00339746
[ Download CSV Export 
Latest 3 internal transactions
Parent Txn Hash Block From To Value
0xff8ccfc62c496dbd777d452119755ce6f8b80fbf684fbf9828140e6f60aa0db867165492021-04-20 0:38:2566 days 3 hrs ago CheeseSwap: Router0x23270d3c66298d52266fd9e6692528dd0307d4000.1 BNB
0x9ecccfb3da5d85d213952996c8a19d72d02d5b8cfa98a4f4dc6c8d278c4cdcf360875392021-03-28 23:43:0388 days 4 hrs ago CheeseSwap: Router0x23270d3c66298d52266fd9e6692528dd0307d4000.139804756723197863 BNB
0x5831db8da5e6176963ae6fab993b76082d0e167d7c40876cde8038d3462fc23155636072021-03-10 16:58:26106 days 10 hrs ago CheeseSwap: Router0x23270d3c66298d52266fd9e6692528dd0307d4000.190731622846409301 BNB
[ Download CSV Export 
Loading

Contract Name:
0 BNB

Compiler Version
0

Optimization Enabled:
0 BNB

Other Settings:
-NA-
Block Transaction Gas Used Reward
Age Block Fee Address BC Fee Address Voting Power Jailed Incoming
Block Uncle Number Difficulty Gas Used Reward
Loading
Loading
Make sure to use the "Vote Down" button for any spammy posts, and the "Vote Up" for interesting conversations.